| time (UTC) | temp C | wind direction | speed KPH | gust KPH | rain 1hr cm | rain 24hr cm | rain mn cm | humidity % | barometer mb |
| 20260504081541 | 21 | 234 | 6.4 | 8.0 | 0.00 | 0.00 | 0.00 | 47 | 1013.1 |
| 20260504044551 | 14 | 251 | 6.4 | 14.5 | 0.00 | 0.00 | 0.00 | 55 | 1012.1 |
| 20260504043046 | 13 | 196 | 6.4 | 19.3 | 0.00 | 0.00 | 0.00 | 55 | 1012.1 |
| 20260504041541 | 14 | 213 | 8.0 | 16.1 | 0.00 | 0.00 | 0.00 | 55 | 1011.9 |
| 20260504040043 | 13 | 179 | 8.0 | 12.9 | 0.00 | 0.00 | 0.00 | 55 | 1011.7 |
| 20260504034551 | 13 | 201 | 6.4 | 11.3 | 0.00 | 0.00 | 0.00 | 55 | 1011.8 |
| 20260504033051 | 13 | 168 | 8.0 | 12.9 | 0.00 | 0.00 | 0.00 | 55 | 1011.6 |
| 20260504031538 | 13 | 198 | 4.8 | 11.3 | 0.00 | 0.00 | 0.00 | 54 | 1011.7 |
| 20260504030036 | 14 | 129 | 6.4 | 14.5 | 0.00 | 0.00 | 0.00 | 54 | 1011.8 |
| 20260504024545 | 14 | 203 | 8.0 | 14.5 | 0.00 | 0.00 | 0.00 | 53 | 1011.7 |
| 20260504023043 | 14 | 200 | 6.4 | 11.3 | 0.00 | 0.00 | 0.00 | 53 | 1011.8 |
| 20260504021542 | 14 | 196 | 6.4 | 11.3 | 0.00 | 0.00 | 0.00 | 53 | 1011.8 |
| 20260504020041 | 14 | 197 | 4.8 | 11.3 | 0.00 | 0.00 | 0.00 | 52 | 1011.9 |
| 20260504014536 | 15 | 143 | 8.0 | 12.9 | 0.00 | 0.00 | 0.00 | 52 | 1011.9 |
| 20260504013043 | 15 | 221 | 6.4 | 12.9 | 0.00 | 0.00 | 0.00 | 50 | 1011.8 |
| 20260504011545 | 15 | 206 | 4.8 | 9.7 | 0.00 | 0.00 | 0.00 | 50 | 1011.8 |
| 20260504010052 | 15 | 202 | 6.4 | 16.1 | 0.00 | 0.00 | 0.00 | 49 | 1011.8 |
| 20260504004542 | 16 | 216 | 6.4 | 12.9 | 0.00 | 0.00 | 0.00 | 48 | 1011.9 |
| 20260504003038 | 16 | 181 | 9.7 | 16.1 | 0.00 | 0.00 | 0.00 | 47 | 1011.9 |
| 20260504001541 | 16 | 163 | 8.0 | 16.1 | 0.00 | 0.00 | 0.00 | 47 | 1011.8 |
| 20260504000045 | 16 | 181 | 8.0 | 14.5 | 0.00 | 0.00 | 0.00 | 46 | 1011.9 |
| 20260503234544 | 16 | 203 | 6.4 | 14.5 | 0.00 | 0.00 | 0.00 | 45 | 1011.9 |
| 20260503233041 | 16 | 176 | 6.4 | 14.5 | 0.00 | 0.00 | 0.00 | 44 | 1012.0 |
| 20260503231538 | 17 | 133 | 8.0 | 14.5 | 0.00 | 0.00 | 0.00 | 44 | 1011.9 |
| 20260503230040 | 17 | 148 | 6.4 | 14.5 | 0.00 | 0.00 | 0.00 | 43 | 1011.9 |
| 20260503224542 | 17 | 211 | 6.4 | 12.9 | 0.00 | 0.00 | 0.00 | 42 | 1012.1 |
| 20260503223046 | 18 | 168 | 9.7 | 17.7 | 0.00 | 0.00 | 0.00 | 41 | 1012.0 |
| 20260503221544 | 18 | 127 | 8.0 | 17.7 | 0.00 | 0.00 | 0.00 | 40 | 1012.0 |
| 20260503220103 | 18 | 141 | 6.4 | 16.1 | 0.00 | 0.00 | 0.00 | 39 | 1012.1 |
| 20260503214540 | 18 | 134 | 8.0 | 14.5 | 0.00 | 0.00 | 0.00 | 38 | 1012.2 |
| 20260503213042 | 18 | 168 | 4.8 | 12.9 | 0.00 | 0.00 | 0.00 | 37 | 1012.1 |
| 20260503211557 | 18 | 230 | 4.8 | 11.3 | 0.00 | 0.00 | 0.00 | 37 | 1012.2 |
| 20260503210035 | 18 | 206 | 6.4 | 11.3 | 0.00 | 0.00 | 0.00 | 35 | 1012.2 |
| 20260503204542 | 19 | 220 | 4.8 | 11.3 | 0.00 | 0.00 | 0.00 | 35 | 1012.4 |
| 20260503203041 | 19 | 212 | 4.8 | 9.7 | 0.00 | 0.00 | 0.00 | 35 | 1012.2 |
| 20260503201542 | 19 | 180 | 6.4 | 9.7 | 0.00 | 0.00 | 0.00 | 34 | 1012.2 |
| 20260503200042 | 20 | 167 | 4.8 | 8.0 | 0.00 | 0.00 | 0.00 | 33 | 1012.3 |
| 20260503194545 | 20 | 200 | 4.8 | 9.7 | 0.00 | 0.00 | 0.00 | 33 | 1012.4 |
| 20260503193043 | 20 | 158 | 4.8 | 8.0 | 0.00 | 0.00 | 0.00 | 32 | 1012.3 |
| 20260503191542 | 20 | 160 | 4.8 | 6.4 | 0.00 | 0.00 | 0.00 | 32 | 1012.3 |
| 20260503190042 | 20 | 160 | 4.8 | 8.0 | 0.00 | 0.00 | 0.00 | 32 | 1012.4 |
| 20260503184541 | 21 | 167 | 3.2 | 6.4 | 0.00 | 0.00 | 0.00 | 31 | 1012.5 |
| 20260503183043 | 21 | 153 | 3.2 | 6.4 | 0.00 | 0.00 | 0.00 | 30 | 1012.2 |
| 20260503181616 | 22 | 184 | 3.2 | 8.0 | 0.00 | 0.00 | 0.00 | 28 | 1012.2 |
| 20260503180041 | 23 | 134 | 3.2 | 9.7 | 0.00 | 0.00 | 0.00 | 27 | 1012.0 |
| 20260503174542 | 23 | 139 | 3.2 | 8.0 | 0.00 | 0.00 | 0.00 | 25 | 1011.9 |
| 20260503173053 | 24 | 150 | 4.8 | 9.7 | 0.00 | 0.00 | 0.00 | 24 | 1012.0 |
| 20260503171540 | 25 | 162 | 4.8 | 11.3 | 0.00 | 0.00 | 0.00 | 24 | 1012.0 |